Regional Weather Roundup
Issued by NWS

Home | Current Version | Previous Version | Text Only | Print | Product List | Glossary Off
Versions: 1 2 3 4 5 6 7 8 9 10 11 12 13 14 15 16 17 18 19 20 21 22 23 24 25 26 27 28 29 30 31 32 33 34 35 36 37 38 39 40 41 42 43 44 45 46 47 48 49 50

000
ASUS45 KPSR 171900
RWRAZ

PRELIMINARY ARIZONA REGIONAL HOURLY WEATHER ROUNDUP
NATIONAL WEATHER SERVICE PHOENIX AZ
1200 PM MST WED SEP 17 2014

NOTE: FAIR INDICATES FEW OR NO CLOUDS BELOW 12,000 FEET WITH NO
SIGNIFICANT WEATHER AND/OR OBSTRUCTIONS TO VISIBILITY.

AZZ001>003-036-172000-
NORTHWEST ARIZONA

CITY           SKY/WX    TMP DP  RH WIND       PRES   REMARKS
KINGMAN        CLOUDY    83  58  42 CALM      29.97F
$$

AZZ004>008-015-016-018-172000-
NORTH CENTRAL ARIZONA

CITY           SKY/WX    TMP DP  RH WIND       PRES   REMARKS
GRAND CANYON   PTSUNNY   73  49  42 SE13G25   30.20F
PRESCOTT       CLOUDY    75  57  53 SE6       30.09F
FLAGSTAFF      LGT RAIN  59  56  89 NE8       30.23F FOG
PAYSON         CLOUDY    73  63  68 VRB5      30.11F
PAGE           MOSUNNY   83  54  36 N5        30.04F
$$

AZZ009>014-017-172000-
NORTHEAST ARIZONA

CITY           SKY/WX    TMP DP  RH WIND       PRES   REMARKS
WINSLOW        NOT AVBL
SAINT JOHNS    CLOUDY    70  59  68 E9        30.15F
SHOW LOW       CLOUDY    64  57  77 N8        30.20F
$$

AZZ023-172000-
GREATER PHOENIX AREA

CITY           SKY/WX    TMP DP  RH WIND       PRES   REMARKS
PHOENIX        CLOUDY    88  66  48 E6        29.81F
GLENDALE       PTSUNNY   86  70  58 VRB3      29.83F
DEER VALLEY    LGT RAIN  86  66  51 E10       29.83F
SCOTTSDALE     CLOUDY    87  66  49 E10       29.85F
MESA-GATEWAY   PTSUNNY   84  66  54 S15       29.85F
CHANDLER       CLOUDY    84  70  61 W6        29.83F
$$

AZZ027-028-172000-
SOUTHWEST MARICOPA COUNTY AND PINAL COUNTY

CITY           SKY/WX    TMP DP  RH WIND       PRES   REMARKS
CASA GRANDE    CLOUDY    82  66  57 SE7       29.84F
GILA BEND      MOCLDY    88  68  51 VRB3      29.80F
$$

AZZ503-504-507>509-172000-
SOUTHEAST ARIZONA

CITY           SKY/WX    TMP DP  RH WIND       PRES   REMARKS
TUCSON         LGT RAIN  77  68  73 E9        29.92F
RYAN FIELD     LGT RAIN  77  72  83 E15       29.90F
NOGALES        LGT RAIN  72  64  76 SE10G22   29.95F
SIERRA VISTA   LGT RAIN  68  66  94 SE15G22   30.03F
SAFFORD        CLOUDY    76  66  71 SE5       29.97F
$$

AZZ020-021-025-026-031-172000-
SOUTHWEST ARIZONA

CITY           SKY/WX    TMP DP  RH WIND       PRES   REMARKS
YUMA           PTSUNNY   96  64  34 E7G17     29.74F
$$

CAZ031-033-041-043-047-048-061-172000-
SOUTHERN CALIFORNIA

CITY           SKY/WX    TMP DP  RH WIND       PRES   REMARKS
DOWNTOWN L.A.  SUNNY     94  62  34 VRB3      29.74S
L.A. AIRPORT   MOSUNNY   79  64  60 W9        29.77S
SAN DIEGO      MOSUNNY   87  65  47 W10       29.76S
BURBANK        SUNNY     95  58  28 S13G21    29.77S
ONTARIO        MOSUNNY   97  61  30 SW9       29.77F
RIVERSIDE      SUNNY     97  62  31 VRB7      29.77F
PALM SPRINGS   MOSUNNY   96  64  34 E7        29.78F
EL CENTRO NAS  MOSUNNY   98  65  33 VRB7      29.73F HX 101
IMPERIAL       SUNNY     94  67  41 VRB3      29.73F
BLYTHE         MOSUNNY   91  68  46 E8        29.78F
$$

NVZ020-UTZ003-172000-
SOUTHERN NEVADA-UTAH

CITY           SKY/WX    TMP DP  RH WIND       PRES   REMARKS
LAS VEGAS      NOT AVBL
SALT LAKE CITY MOSUNNY   90  39  16 S13       29.96F
$$

NMZ009-TXZ055-172000-
NEW MEXICO-WEST TEXAS

CITY           SKY/WX    TMP DP  RH WIND       PRES   REMARKS
ALBUQUERQUE    LGT RAIN  65  58  78 N5        30.19F
EL PASO        PTSUNNY   78  63  59 N9        30.04F
$$


........................KEY........................
SKY/WX - SKY CONDITION/WEATHER
TMP    - TEMPERATURE IN FAHRENHEIT
DP     - DEW POINT IN FAHRENHEIT
RH     - RELATIVE HUMIDITY IN PERCENT
WIND   - DIRECTION AND SPEED IN MILES PER HOUR (MPH)
VRB    - VARIABLE WIND DIRECTION
PRES   - MEAN SEA LEVEL PRESSURE IN INCHES OF MERCURY
         F - FALLING PRESSURE   R - RISING PRESSURE
         S - STEADY PRESSURE
VSB    - VISIBILITY IN MILES
HX     - HEAT INDEX IN FAHRENHEIT
WCI    - WIND CHILL INDEX IN FAHRENHEIT
TC     - TEMPERATURE IN CELSIUS WHICH IS ALSO KNOWN AS
         TEMPERATURE IN CENTIGRADE
AFB    - AIR FORCE BASE
         LUKE AFB IS LUKE AIR FORCE BASE
         DAVIS-MONTHAN IS DAVIS-MONTHAN AIR FORCE BASE
NAS    - NAVAL AIR STATION
         EL CENTRO NAS IS EL CENTRO NAVAL AIR STATION
N/A    - NOT AVAILABLE


USA.gov is the U.S. government's official web portal to all federal, state and local government web resources and services.